Location: Clegg Observatory
(38.9178°N, 78.6069°W)
Time: 23:06:11
(UTC-04:00)

Cosmos 1151 Rocket - Visible Passes

Search period start: 29 June 2016 00:00
Search period end: 09 July 2016 00:00
Orbit: 592 x 617 km, 82.5° (Epoch: 29 June)

Date Brightness Start Highest point End Pass type
(mag) Time Alt. Az. Time Alt. Az. Time Alt. Az.
29 Jun 3.0 21:32:03 10° N 21:36:23 76° E 21:40:43 10° SSE visible
30 Jun 3.5 21:44:57 10° NNW 21:49:12 61° W 21:53:29 10° S visible
01 Jul 4.5 21:58:03 10° NNW 22:01:59 35° W 22:05:55 10° SSW visible
02 Jul 5.4 22:11:27 10° NW 22:14:41 21° W 22:17:55 10° SW visible
03 Jul 5.9 22:25:34 10° WNW 22:27:20 12° W 22:29:05 10° WSW visible
05 Jul 3.9 21:11:43 10° NNW 21:15:57 53° W 21:20:11 10° S visible
06 Jul 5.0 21:24:53 10° NNW 21:28:42 30° W 21:32:31 10° SSW visible
07 Jul 5.8 21:38:24 10° NW 21:41:23 18° W 21:44:23 10° SW visible
08 Jul 6.2 21:53:02 10° WNW 21:54:01 11° W 21:55:01 10° W visible
